VA5EVR-13 Weather Reports


time (UTC)temp
F
wind
direction
speed
knots
gust
knots
rain 1hr
in
rain 24hr
in
rain mn
in
humidity
%
barometer
mb
20260505041012 35 0 11.3 11.3 0.00 0.00 0.00 70 88.8
20260505040011 35 45 11.3 11.3 0.00 0.00 0.00 71 88.8
20260505035011 35 0 11.3 11.3 0.00 0.00 0.00 72 88.8
20260505034012 35 0 13.9 13.9 0.00 0.00 0.00 71 88.8
20260505033013 36 22 8.7 8.7 0.00 0.00 0.00 70 88.8
20260505032011 36 0 15.6 15.6 0.00 0.00 0.00 69 88.8
20260505031012 36 22 12.2 12.2 0.00 0.00 0.00 69 88.8
20260505030012 36 0 13.9 13.9 0.00 0.00 0.00 70 88.8
20260505025013 36 0 9.6 9.6 0.00 0.00 0.00 71 88.8
20260505024011 36 338 9.6 9.6 0.00 0.00 0.00 70 88.8
20260505023012 36 0 13.9 13.9 0.00 0.00 0.00 70 88.8
20260505022012 36 338 14.8 14.8 0.00 0.00 0.00 70 88.8
20260505021012 36 0 15.6 15.6 0.00 0.00 0.00 70 88.8
20260505020011 36 0 14.8 14.8 0.00 0.00 0.00 69 88.8
20260505015012 36 315 12.2 12.2 0.00 0.00 0.00 69 88.8
20260505014011 36 0 13.9 13.9 0.00 0.00 0.00 69 88.8
20260505013012 37 0 16.5 16.5 0.00 0.00 0.00 69 88.8
20260505012012 37 0 17.4 17.4 0.00 0.00 0.00 68 88.8
20260505011012 37 22 16.5 16.5 0.00 0.00 0.00 68 88.8
20260505010011 37 338 13.9 13.9 0.00 0.00 0.00 68 88.8
20260505005011 37 338 16.5 16.5 0.00 0.00 0.00 68 88.8
20260505004011 38 22 9.6 9.6 0.00 0.00 0.00 68 88.8
20260505003011 38 338 16.5 16.5 0.00 0.00 0.00 67 88.8
20260505002012 38 338 12.2 12.2 0.00 0.00 0.00 67 88.8
20260505001012 38 0 18.2 18.2 0.00 0.00 0.00 67 88.8
20260505000012 38 0 18.2 18.2 0.00 0.00 0.00 67 88.8
20260504235012 38 0 14.8 14.8 0.00 0.00 0.00 67 88.8
20260504234012 38 0 16.5 16.5 0.00 0.00 0.00 67 88.8
20260504233012 38 0 18.2 18.2 0.00 0.00 0.00 67 88.8
20260504232012 39 315 13.0 13.0 0.00 0.00 0.00 67 88.8
20260504231012 39 315 10.4 10.4 0.00 0.00 0.00 67 88.8
20260504230011 39 0 17.4 17.4 0.00 0.00 0.00 67 88.8
20260504225011 39 0 13.9 13.9 0.00 0.00 0.00 67 88.8
20260504224012 39 0 14.8 14.8 0.00 0.00 0.00 67 88.8
20260504223012 39 338 13.9 13.9 0.00 0.00 0.00 67 88.8
20260504222012 39 22 16.5 16.5 0.00 0.00 0.00 67 88.8
20260504221012 40 0 13.0 13.0 0.00 0.00 0.00 66 88.8
20260504220012 40 0 15.6 15.6 0.00 0.00 0.00 66 88.8
20260504215011 40 338 15.6 15.6 0.00 0.00 0.00 66 88.8
20260504214011 39 338 14.8 14.8 0.00 0.00 0.00 66 88.8
20260504213012 39 338 18.2 18.2 0.00 0.00 0.00 67 88.8
20260504212011 39 0 12.2 12.2 0.00 0.00 0.00 67 88.8
20260504211012 39 22 17.4 17.4 0.00 0.00 0.00 67 88.8
20260504210012 40 0 15.6 15.6 0.00 0.00 0.00 66 88.8
20260504205011 40 22 23.5 23.5 0.00 0.00 0.00 66 88.8
20260504204012 40 338 13.9 13.9 0.00 0.00 0.00 67 88.8
20260504203011 39 338 14.8 14.8 0.00 0.00 0.00 67 88.8
20260504202011 39 22 15.6 15.6 0.00 0.00 0.00 67 88.8
20260504201012 39 22 10.4 10.4 0.00 0.00 0.00 66 88.8
20260504200011 39 22 13.9 13.9 0.00 0.00 0.00 67 88.8
20260504195012 39 338 10.4 10.4 0.00 0.00 0.00 65 88.8
20260504194012 40 0 15.6 15.6 0.00 0.00 0.00 65 88.8
20260504193012 40 338 19.1 19.1 0.00 0.00 0.00 65 88.8
20260504191012 40 22 15.6 15.6 0.00 0.00 0.00 64 88.8
20260504190011 40 338 11.3 11.3 0.00 0.00 0.00 65 88.8
20260504185012 40 338 13.0 13.0 0.00 0.00 0.00 65 88.8
20260504184012 39 292 20.9 20.9 0.00 0.00 0.00 67 88.8
20260504182012 38 338 13.9 13.9 0.00 0.00 0.00 69 88.8
20260504181011 38 22 15.6 15.6 0.00 0.00 0.00 68 88.8
20260504180011 38 338 10.4 10.4 0.00 0.00 0.00 69 88.8
20260504175012 38 338 19.1 19.1 0.00 0.00 0.00 70 88.8
20260504174012 38 0 12.2 12.2 0.00 0.00 0.00 70 88.8
20260504173012 38 292 7.8 7.8 0.00 0.00 0.00 71 88.8
20260504172013 37 22 15.6 15.6 0.00 0.00 0.00 73 88.8
20260504171012 36 0 13.9 13.9 0.00 0.00 0.00 74 88.8
20260504151012 34 22 19.1 19.1 0.00 0.00 0.00 75 88.8
20260504141011 34 0 18.2 18.2 0.00 0.00 0.00 77 88.8
20260504081011 36 338 8.7 8.7 0.00 0.00 0.00 91 88.8
20260504050012 41 22 8.7 8.7 0.00 0.00 0.00 83 88.8